DW4535 Weather Reports


time (UTC)temp
C
wind
direction
speed
KPH
gust
KPH
rain 1hr
cm
rain 24hr
cm
rain mn
cm
humidity
%
barometer
mb
20260503211559 -17 295 3.2 11.3 0.00 0.00 0.00 1008.4
20260503210057 -17 314 6.4 14.5 0.00 0.00 0.00 1008.5
20260503204551 -17 307 1.6 11.3 0.00 0.00 0.00 1008.6
20260503203053 -17 310 4.8 14.5 0.00 0.00 0.00 1008.8
20260503201545 -17 295 1.6 4.8 0.00 0.00 0.00 1009.0
20260503200038 -17 296 1.6 16.1 0.00 0.00 0.00 1009.2
20260503194534 -17 311 4.8 11.3 0.00 0.00 0.00 1009.3
20260503193029 -17 298 3.2 9.7 0.00 0.00 0.00 1009.4
20260503191534 -17 281 1.6 8.0 0.00 0.00 0.00 1009.5
20260503190025 -17 359 3.2 12.9 0.00 0.00 0.00 1009.6
20260503184516 -17 77 4.8 17.7 0.00 0.00 0.00 1009.7
20260503183010 -17 46 3.2 17.7 0.00 0.00 0.00 1009.9
20260503181508 -17 56 1.6 11.3 0.00 0.00 0.00 1009.9
20260503180003 -17 6 1.6 9.7 0.00 0.00 0.00 1010.0
20260503174559 -17 48 1.6 8.0 0.00 0.00 0.00 1010.1
20260503173104 -17 323 1.6 11.3 0.00 0.00 0.00 1010.2
20260503171548 -17 301 6.4 16.1 0.00 0.00 0.00 1010.2
20260503110104 -17 1 0.0 0.0 0.00 0.00 0.00 1011.0
20260503081516 -17 1 1.6 3.2 0.00 0.00 0.00 1012.1
20260503071553 -17 1 0.0 0.0 0.00 0.00 0.00 1012.4
20260503054534 -17 1 0.0 0.0 0.00 0.00 0.00 1013.3
20260503053023 -17 1 0.0 3.2 0.00 0.00 0.00 1013.3
20260503051515 -17 1 0.0 0.0 0.00 0.00 0.00 1013.5
20260503050010 -17 1 0.0 0.0 0.00 0.00 0.00 1013.3
20260503044505 -17 1 0.0 1.6 0.00 0.00 0.00 1013.2
20260503043003 -17 1 0.0 1.6 0.00 0.00 0.00 1013.1
20260503041556 -17 1 0.0 1.6 0.00 0.00 0.00 1012.9
20260503040058 -17 1 0.0 1.6 0.00 0.00 0.00 1012.7
20260503034549 -17 1 0.0 4.8 0.00 0.00 0.00 1012.4
20260503033045 -17 1 0.0 3.2 0.00 0.00 0.00 1012.3
20260503031539 -17 1 1.6 6.4 0.00 0.00 0.00 1012.2
20260503030034 -17 1 1.6 8.0 0.00 0.00 0.00 1012.1
20260503024530 -17 14 3.2 9.7 0.00 0.00 0.00 1012.1
20260503023024 -17 359 3.2 11.3 0.00 0.00 0.00 1012.1
20260503021538 -17 42 4.8 11.3 0.00 0.00 0.00 1012.2
20260503020016 -17 27 3.2 8.0 0.00 0.00 0.00 1012.0
20260503014511 -17 52 3.2 11.3 0.00 0.00 0.00 1012.0
20260503013008 -17 6 4.8 9.7 0.00 0.00 0.00 1012.1
20260503011503 -17 96 3.2 9.7 0.00 0.00 0.00 1012.3
20260503010104 -17 336 3.2 14.5 0.00 0.00 0.00 1012.5
20260503004605 -17 354 4.8 12.9 0.00 0.00 0.00 1012.5
20260503003102 -17 302 6.4 12.9 0.00 0.00 0.00 1012.7
20260503001600 -17 308 6.4 17.7 0.00 0.00 0.00 1012.7
20260503000040 -17 294 8.0 19.3 0.00 0.00 0.00 1012.9
20260502234537 -17 293 6.4 17.7 0.00 0.00 0.00 1012.9
20260502233031 -17 311 8.0 16.1 0.00 0.00 0.00 1012.9
20260502231527 -17 293 8.0 16.1 0.00 0.00 0.00 1013.1
20260502230022 -17 300 8.0 16.1 0.00 0.00 0.00 1013.3
20260502224530 -17 319 8.0 20.9 0.00 0.00 0.00 1013.4
20260502223012 -17 298 8.0 17.7 0.00 0.00 0.00 1013.6
20260502221508 -17 281 8.0 16.1 0.00 0.00 0.00 1013.8
20260502220003 -17 281 9.7 19.3 0.00 0.00 0.00 1014.0
20260502214559 -17 283 11.3 17.7 0.00 0.00 0.00 1014.0
20260502213106 -17 322 9.7 19.3 0.00 0.00 0.00 1014.1